sat.trackr.live / text

‹ back to catalog

STARLINK-33952

NORAD 64046 · 2025-102AA

PAYLOAD ACTIVE UNKNOWN

§ Identity

Operator
Country
US
Launch date
2025-05-16
Launch site
AFWTR
Launch vehicle
Mass (kg)
RCS (m²)

Purposes: comms

External: N2YO · Heavens-Above · Gunter

§ Orbital elements

Epoch: 2026-05-24T19:02:12.974208Z

Period
96.11 min
Inclination
70.0003°
Eccentricity
0.0002968
Mean motion
14.98352777 rev/d
Perigee alt
569.9 km
Apogee alt
574.0 km
Semi-major
6,950.1 km
B*
4.3274e-4
RAAN
282.4883°
Arg perigee
271.7096°
Mean anomaly
88.3723°
Rev number
5,735

§ Raw data

STARLINK-339521 64046U 25102AA  26144.79320572  .00005077  00000+0  43274-3 0  99932 64046  70.0003 282.4883 0002968 271.7096  88.3723 14.98352777 57358

JSON: /api/v1/satellites/64046 · /tle

For live sub-satellite position, see the globe view (requires WebGL).

§ Visibility from observer

Set your observer location to see the next 7 days of passes ≥ 10°. The values pass through the URL so the page stays shareable.

No JS? Fill the form by hand. The geolocation button needs JavaScript.